Date String (YYYY-MM-DD hh:mm:ss) UTC,Instrument flags,absolute air pressure of the measurement (hPa),sample flow rate (lpm),inlet stack bypass flow (lpm),air temperature of the measurement (°C),ambient temperature measured by the external sensor (°C),aerosol sample conditioner tube jacket temperature (°C),OPC LED temperature (°C),internal box temperature (°C),relative humidity of the measurement (%),span deviation,mass concentration of particles derived from Lorenz-Mie calculation of OPC scattering (μg/m³),mass concentration of particles derived from Lorenz-Mie calculation of OPC scattering (μg/m³),mass concentration of particles derived from Lorenz-Mie calculation of OPC scattering (μg/m³)
DateTimeUTC,F1_M11,P_M11,Q1_M11,Q2_M11,T1_M11,T2_M11,T3_M11,T4_M11,T5_M11,U1_M11,ZSPAN_M11,X0_M11,X2_M11,X1_M11
2023-11-01 23:00:00,SystemResetWarning,0830.8,5.01,000.00,026.3,025.4,000.0,034.7,027.8,13.9,0001.5,0018.89,0007.52,0006.51
2023-11-01 23:01:00,SystemResetWarning,0830.9,4.98,000.00,026.3,025.4,000.0,034.7,027.8,13.7,0001.2,0018.03,0007.58,0006.55
2023-11-01 23:02:00,SystemResetWarning,0830.9,4.99,000.00,026.4,025.4,000.0,034.7,027.8,13.7,0002.3,0017.16,0007.59,0006.55
2023-11-01 23:03:00,SystemResetWarning,0830.8,5.00,000.00,026.4,025.4,000.0,034.7,027.8,13.6,0002.0,0017.13,0007.60,0006.55
2023-11-01 23:04:00,SystemResetWarning,0830.9,5.01,000.00,026.4,025.4,000.0,034.7,027.8,13.6,0001.2,0016.78,0007.63,0006.56
2023-11-01 23:05:00,SystemResetWarning,0830.9,5.00,000.00,026.4,025.5,000.0,034.7,027.9,14.3,0000.7,0016.15,0007.64,0006.56
2023-11-01 23:06:00,SystemResetWarning,0830.8,5.01,000.00,026.4,025.5,000.0,034.7,027.8,15.1,0000.5,0015.29,0007.66,0006.57
2023-11-01 23:07:00,SystemResetWarning,0830.9,4.99,000.00,026.4,025.5,000.0,034.7,027.8,15.4,0001.0,0015.56,0007.67,0006.60
2023-11-01 23:08:00,SystemResetWarning,0830.8,4.99,000.00,026.4,025.5,000.0,034.7,027.9,14.8,0000.9,0015.57,0007.68,0006.63
2023-11-01 23:09:00,SystemResetWarning,0830.8,5.00,000.00,026.4,025.5,000.0,034.7,027.8,13.6,0000.6,0015.78,0007.72,0006.69
2023-11-01 23:10:00,SystemResetWarning,0830.8,5.01,000.00,026.4,025.5,000.0,034.7,027.9,13.6,0000.7,0016.03,0007.88,0006.78
2023-11-01 23:11:00,SystemResetWarning,0830.8,5.00,000.00,026.5,025.5,000.0,034.8,027.9,13.6,0000.5,0016.53,0008.02,0006.91
2023-11-01 23:12:00,SystemResetWarning,0830.8,5.00,000.00,026.5,025.5,000.0,034.8,027.9,13.4,0000.4,0016.68,0008.12,0007.01
2023-11-01 23:13:00,SystemResetWarning,0830.8,5.00,000.00,026.5,025.6,000.0,034.8,027.9,14.1,0000.2,0016.97,0008.30,0007.15
2023-11-01 23:14:00,SystemResetWarning,0830.8,4.98,000.00,026.5,025.6,000.0,034.8,027.9,14.2,0001.1,0017.52,0008.45,0007.30
2023-11-01 23:15:00,SystemResetWarning,0830.9,5.01,000.00,026.5,025.6,000.0,034.8,027.9,13.3,0001.8,0018.16,0008.58,0007.42
2023-11-01 23:16:00,SystemResetWarning,0830.8,5.01,000.00,026.5,025.6,000.0,034.8,028.0,12.9,0002.4,0019.95,0008.74,0007.54
2023-11-01 23:17:00,SystemResetWarning,0830.9,4.99,000.00,026.5,025.6,000.0,034.8,028.0,12.6,0002.1,0020.82,0008.94,0007.71
2023-11-01 23:18:00,SystemResetWarning,0830.8,4.99,000.00,026.6,025.7,000.0,034.8,028.0,12.8,0002.3,0020.58,0009.09,0007.86
2023-11-01 23:19:00,SystemResetWarning,0830.9,5.00,000.00,026.6,025.7,000.0,034.8,028.0,12.7,0002.4,0021.19,0009.24,0008.01
2023-11-01 23:20:00,SystemResetWarning,0830.8,5.00,000.00,026.6,025.7,000.0,034.8,028.0,13.5,0002.8,0021.32,0009.32,0008.14
2023-11-01 23:21:00,SystemResetWarning,0830.9,5.01,000.00,026.6,025.7,000.0,034.8,028.1,13.1,0003.0,0020.91,0009.36,0008.22
2023-11-01 23:22:00,SystemResetWarning,0830.9,5.01,000.00,026.6,025.7,000.0,034.9,028.0,12.8,0002.4,0020.63,0009.42,0008.29
2023-11-01 23:23:00,SystemResetWarning,0830.9,4.99,000.00,026.6,025.7,000.0,034.9,028.0,12.9,0002.5,0020.55,0009.46,0008.34
2023-11-01 23:24:00,SystemResetWarning,0830.9,4.99,000.00,026.6,025.8,000.0,034.9,028.1,12.9,0002.4,0020.15,0009.42,0008.37
2023-11-01 23:25:00,SystemResetWarning,0830.9,5.01,000.00,026.6,025.8,000.0,034.9,028.1,12.5,0001.7,0019.61,0009.38,0008.35
2023-11-01 23:26:00,SystemResetWarning,0830.9,5.01,000.00,026.7,025.8,000.0,034.9,028.1,13.0,0002.4,0019.10,0009.43,0008.41
2023-11-01 23:27:00,SystemResetWarning,0830.9,4.99,000.00,026.7,025.8,000.0,034.9,028.1,13.1,0003.1,0017.69,0009.51,0008.48
2023-11-01 23:28:00,SystemResetWarning,0830.9,4.99,000.00,026.7,025.8,000.0,034.9,028.2,12.9,0003.5,0017.24,0009.44,0008.43
2023-11-01 23:29:00,SystemResetWarning,0830.9,4.99,000.00,026.7,025.8,000.0,034.9,028.2,12.4,0004.0,0017.09,0009.25,0008.27
2023-11-01 23:30:00,SystemResetWarning,0830.9,5.00,000.00,026.7,025.8,000.0,034.9,028.2,13.1,0004.2,0016.73,0009.16,0008.15
2023-11-01 23:31:00,SystemResetWarning,0830.9,4.99,000.00,026.7,025.8,000.0,035.0,028.2,13.3,0003.6,0016.62,0009.09,0008.04
2023-11-01 23:32:00,SystemResetWarning,0830.9,5.01,000.00,026.7,025.9,000.0,035.0,028.2,12.9,0003.6,0016.84,0008.97,0007.90
2023-11-01 23:33:00,SystemResetWarning,0830.9,5.01,000.00,026.7,025.9,000.0,035.0,028.2,12.6,0004.3,0016.72,0008.85,0007.79
2023-11-01 23:34:00,SystemResetWarning,0830.9,4.99,000.00,026.7,025.9,000.0,035.0,028.2,12.4,0004.1,0016.09,0008.73,0007.68
2023-11-01 23:35:00,SystemResetWarning,0831.0,4.99,000.00,026.8,025.9,000.0,035.0,028.2,12.1,0004.3,0016.23,0008.68,0007.61
2023-11-01 23:36:00,SystemResetWarning,0830.9,5.00,000.00,026.8,025.9,000.0,035.0,028.2,13.2,0004.1,0016.35,0008.71,0007.61
2023-11-01 23:37:00,SystemResetWarning,0830.9,5.01,000.00,026.8,025.9,000.0,035.0,028.2,13.7,0002.2,0017.15,0008.69,0007.56
2023-11-01 23:38:00,SystemResetWarning,0830.9,5.00,000.00,026.8,025.8,000.0,035.0,028.2,14.2,0000.2,0016.94,0008.57,0007.51
2023-11-01 23:39:00,SystemResetWarning,0831.0,4.99,000.00,026.8,025.8,000.0,035.0,028.3,13.9,-000.4,0016.48,0008.56,0007.53
2023-11-01 23:40:00,SystemResetWarning,0830.9,5.01,000.00,026.8,025.8,000.0,035.1,028.2,13.2,-001.1,0016.28,0008.70,0007.63
2023-11-01 23:41:00,SystemResetWarning,0830.9,5.01,000.00,026.8,025.8,000.0,035.1,028.2,12.9,-000.9,0015.70,0008.71,0007.65
2023-11-01 23:42:00,SystemResetWarning,0831.0,4.99,000.00,026.8,025.8,000.0,035.1,028.2,12.6,-001.3,0015.32,0008.65,0007.63
2023-11-01 23:43:00,SystemResetWarning,0831.0,5.00,000.00,026.8,025.8,000.0,035.1,028.3,12.5,-001.8,0015.02,0008.67,0007.64
2023-11-01 23:44:00,SystemResetWarning,0831.0,5.02,000.00,026.8,025.8,000.0,035.1,028.2,12.7,-001.7,0014.91,0008.69,0007.67
2023-11-01 23:45:00,SystemResetWarning,0831.1,4.99,000.00,026.8,025.8,000.0,035.1,028.3,12.7,-001.3,0015.03,0008.74,0007.71
2023-11-01 23:46:00,SystemResetWarning,0831.1,4.99,000.00,026.8,025.8,000.0,035.1,028.3,12.8,-000.8,0014.94,0008.78,0007.72
2023-11-01 23:47:00,SystemResetWarning,0831.1,5.01,000.00,026.8,025.8,000.0,035.1,028.3,12.2,-001.2,0014.70,0008.66,0007.65
2023-11-01 23:48:00,SystemResetWarning,0831.1,5.01,000.00,026.8,025.8,000.0,035.1,028.2,12.7,-000.3,0013.88,0008.56,0007.58
2023-11-01 23:49:00,SystemResetWarning,0831.1,5.00,000.00,026.8,025.8,000.0,035.1,028.3,12.7,0001.5,0015.01,0008.54,0007.52
2023-11-01 23:50:00,SystemResetWarning,0831.1,5.00,000.00,026.8,025.8,000.0,035.1,028.3,12.6,0002.5,0015.67,0008.48,0007.43
2023-11-01 23:51:00,SystemResetWarning,0831.1,4.99,000.00,026.8,025.8,000.0,035.1,028.3,12.0,0002.9,0015.73,0008.31,0007.30
2023-11-01 23:52:00,SystemResetWarning,0831.1,4.99,000.00,026.8,025.8,000.0,035.1,028.3,11.8,0003.2,0015.49,0008.18,0007.20
2023-11-01 23:53:00,SystemResetWarning,0831.1,5.00,000.00,026.8,025.9,000.0,035.2,028.2,11.7,0004.1,0015.33,0008.11,0007.14
2023-11-01 23:54:00,SystemResetWarning,0831.2,5.02,000.00,026.8,025.8,000.0,035.2,028.3,11.6,0003.7,0015.12,0008.04,0007.12
2023-11-01 23:55:00,SystemResetWarning,0831.2,5.01,000.00,026.8,025.9,000.0,035.2,028.3,11.8,0003.6,0014.96,0007.92,0007.04
2023-11-01 23:56:00,SystemResetWarning,0831.1,4.99,000.00,026.8,025.9,000.0,035.2,028.3,11.4,0004.1,0015.30,0007.78,0006.93
2023-11-01 23:57:00,SystemResetWarning,0831.1,4.99,000.00,026.8,025.9,000.0,035.2,028.3,11.4,0003.9,0015.47,0007.58,0006.80
2023-11-01 23:58:00,SystemResetWarning,0831.1,5.01,000.00,026.8,025.9,000.0,035.2,028.3,12.5,0004.6,0015.42,0007.47,0006.70
2023-11-01 23:59:00,SystemResetWarning,0831.1,5.01,000.00,026.9,025.9,000.0,035.2,028.3,12.3,0004.8,0015.67,0007.37,0006.63
